Fort Campbell, KY

6:32 AM CDT on August 28, 2016 (GMT -0500)
Campbell Army Air Field

Weather History for KHOP - January, 2013

Change the Weather History Date:

Saturday, January 12, 2013

  Actual Average Record
Temperature  
Mean Temperature 66 °F -  
Max Temperature 69 °F 43 °F 69 °F (2013)
Min Temperature 63 °F 26 °F 5 °F (1997)
Cooling Degree Days 1    
Growing Degree Days 16 (Base 50)    
Moisture  
Dew Point 65 °F    
Average Humidity 96    
Maximum Humidity 100    
Minimum Humidity 81    
Precipitation  
Precipitation 0.00 in - - ()
Sea Level Pressure  
Sea Level Pressure 29.92 in    
Wind  
Wind Speed 10 mph (South)    
Max Wind Speed 18 mph    
Max Gust Speed 31 mph    
Visibility 10 miles    
Events      
Averages and records for this station are not official NWS values.
T = Trace of Precipitation, MM = Missing Value Source: NWS Daily Summary

Daily Weather History Graph

Daily Weather History Graph

Search for Another Location

Airport or City:

Trip Planner

Search our weather history database for the weather conditions in past years. The results will help you decide how hot, cold, wet, or windy it might be!

Date:

Astronomy

Jan. 12, 2013 Rise Set
Actual Time 7:02 AM CST 4:55 PM CST
Civil Twilight 6:33 AM CST 5:23 PM CST
Nautical Twilight 6:01 AM CST 5:55 PM CST
Astronomical Twilight 5:30 AM CST 6:26 PM CST
Moon 7:23 AM CST (1/12) 6:20 PM CST (1/12)
Length of Visible Light 10h 49m
Length of Day
9h 52m
New Moon, 1% of the Moon is Illuminated
Jan 12
New Moon
Jan 18
First Quarter
Jan 26
Full
Feb 3
Last Quarter
Feb 10
New

Hourly Weather History & Observations

Time (CST) Temp. Dew Point Humidity Pressure Visibility Wind Dir Wind Speed Gust Speed Precip Events Conditions
12:55 AM 63.5 °F 63.5 °F 100% 29.97 in 10.0 mi South 11.5 mph 20.7 mph N/A   Overcast
1:01 AM 64.4 °F 64.4 °F 100% 29.97 in 10.0 mi SSW 12.7 mph 20.7 mph N/A   Mostly Cloudy
1:07 AM 64.4 °F 64.4 °F 100% 29.97 in 10.0 mi SSW 11.5 mph - N/A   Mostly Cloudy
1:13 AM 64.4 °F 64.4 °F 100% 29.97 in 10.0 mi South 13.8 mph - N/A   Overcast
1:55 AM 64.2 °F 64.2 °F 100% 29.97 in 10.0 mi South 11.5 mph - N/A   Overcast
2:19 AM 64.4 °F 64.4 °F 100% 29.97 in 10.0 mi South 11.5 mph - N/A   Scattered Clouds
2:55 AM 64.9 °F 64.9 °F 100% 29.96 in 10.0 mi SSW 12.7 mph - N/A   Clear
3:55 AM 64.4 °F 64.4 °F 100% 29.96 in 10.0 mi SSW 8.1 mph - N/A   Scattered Clouds
4:01 AM 64.4 °F 64.4 °F 100% 29.96 in 10.0 mi SSW 10.4 mph - N/A   Mostly Cloudy
4:36 AM 64.4 °F 64.4 °F 100% 29.96 in 10.0 mi SSW 8.1 mph - N/A   Overcast
4:55 AM 64.9 °F 64.9 °F 100% 29.96 in 10.0 mi South 4.6 mph - N/A   Overcast
5:42 AM 64.4 °F 64.4 °F 100% 29.98 in 10.0 mi South 3.5 mph - N/A   Light Drizzle
5:52 AM 64.4 °F 64.4 °F 100% 29.98 in 10.0 mi Calm Calm - N/A   Overcast
5:55 AM 63.7 °F 63.7 °F 100% 29.98 in 10.0 mi Calm Calm - 0.00 in   Overcast
6:49 AM 64.4 °F 64.4 °F 100% 29.99 in 10.0 mi SSE 5.8 mph - N/A   Mostly Cloudy
6:55 AM 63.7 °F 63.7 °F 100% 29.99 in 10.0 mi SSE 5.8 mph - N/A   Mostly Cloudy
7:29 AM 64.4 °F 64.4 °F 100% 30.00 in 10.0 mi SSE 5.8 mph - N/A   Overcast
7:43 AM 64.4 °F 64.4 °F 100% 30.00 in 10.0 mi SSE 5.8 mph - N/A   Overcast
7:55 AM 64.2 °F 64.2 °F 100% 30.00 in 10.0 mi SSE 4.6 mph - N/A   Overcast
8:55 AM 64.9 °F 64.9 °F 100% 30.00 in 10.0 mi SE 5.8 mph - N/A   Overcast
9:16 AM 64.4 °F 64.4 °F 100% 30.00 in 10.0 mi SSE 8.1 mph - N/A   Overcast
9:34 AM 66.2 °F 66.2 °F 100% 29.99 in 10.0 mi SE 5.8 mph - N/A   Scattered Clouds
9:39 AM 66.2 °F 66.2 °F 100% 29.99 in 10.0 mi SSE 3.5 mph - N/A   Mostly Cloudy
9:54 AM 66.2 °F 66.2 °F 100% 29.99 in 10.0 mi SSE 5.8 mph - N/A   Mostly Cloudy
9:55 AM 66.9 °F 66.9 °F 100% 29.99 in 10.0 mi SSE 4.6 mph - N/A   Mostly Cloudy
10:55 AM 67.3 °F 67.3 °F 100% 29.98 in 10.0 mi SE 4.6 mph - N/A   Overcast
11:11 AM 68.0 °F 68.0 °F 100% 29.98 in 10.0 mi SSE 5.8 mph - N/A   Light Drizzle
11:27 AM 68.0 °F 68.0 °F 100% 29.97 in 10.0 mi SSE 5.8 mph - N/A   Overcast
11:55 AM 67.8 °F 67.8 °F 100% 29.95 in 10.0 mi SSE 8.1 mph - 0.00 in   Overcast
12:12 PM 68.0 °F 68.0 °F 100% 29.94 in 10.0 mi SSE 6.9 mph - N/A   Overcast
12:55 PM 68.2 °F 68.2 °F 100% 29.92 in 10.0 mi South 10.4 mph - N/A   Overcast
1:55 PM 68.4 °F 66.7 °F 95% 29.89 in 10.0 mi SSE 10.4 mph - N/A   Mostly Cloudy
1:58 PM 68.0 °F 66.2 °F 94% 29.89 in 10.0 mi South 11.5 mph - N/A   Overcast
2:10 PM 68.0 °F 66.2 °F 94% 29.89 in 10.0 mi South 11.5 mph - N/A   Mostly Cloudy
2:25 PM 69.8 °F 66.2 °F 88% 29.90 in 10.0 mi South 13.8 mph 18.4 mph N/A   Mostly Cloudy
2:31 PM 69.8 °F 66.2 °F 88% 29.89 in 10.0 mi South 13.8 mph 18.4 mph N/A   Mostly Cloudy
2:55 PM 69.1 °F 65.8 °F 89% 29.88 in 10.0 mi SSE 12.7 mph - N/A   Partly Cloudy
3:27 PM 68.0 °F 66.2 °F 94% 29.88 in 10.0 mi South 12.7 mph 19.6 mph N/A   Mostly Cloudy
3:55 PM 68.5 °F 65.8 °F 91% 29.87 in 10.0 mi South 13.8 mph - N/A   Overcast
4:55 PM 68.4 °F 65.8 °F 92% 29.86 in 10.0 mi SSE 11.5 mph - N/A   Overcast
5:21 PM 68.0 °F 66.2 °F 94% 29.86 in 10.0 mi South 10.4 mph - N/A   Overcast
5:55 PM 67.8 °F 66.2 °F 95% 29.85 in 10.0 mi SSE 9.2 mph - N/A   Mostly Cloudy
6:05 PM 68.0 °F 66.2 °F 94% 29.85 in 10.0 mi South 8.1 mph - N/A   Mostly Cloudy
6:27 PM 68.0 °F 66.2 °F 94% 29.84 in 10.0 mi SSE 10.4 mph - N/A   Mostly Cloudy
6:40 PM 68.0 °F 66.2 °F 94% 29.84 in 10.0 mi SSE 9.2 mph - N/A   Mostly Cloudy
6:55 PM 67.8 °F 66.4 °F 95% 29.83 in 10.0 mi SSE 12.7 mph - N/A   Mostly Cloudy
7:07 PM 68.0 °F 66.2 °F 94% 29.83 in 10.0 mi South 9.2 mph - N/A   Scattered Clouds
7:55 PM 68.5 °F 65.8 °F 91% 29.83 in 10.0 mi South 10.4 mph - N/A   Overcast
8:10 PM 68.0 °F 66.2 °F 94% 29.83 in 10.0 mi South 9.2 mph - N/A   Overcast
8:55 PM 69.4 °F 64.2 °F 83% 29.81 in 10.0 mi SSE 11.5 mph 21.9 mph N/A   Overcast
9:55 PM 69.4 °F 63.5 °F 81% 29.79 in 10.0 mi SSE 12.7 mph 19.6 mph N/A   Overcast
10:46 PM 69.8 °F 64.4 °F 83% 29.80 in 10.0 mi South 18.4 mph 31.1 mph N/A   Light Drizzle
10:55 PM 69.3 °F 63.7 °F 82% 29.79 in 10.0 mi South 18.4 mph 26.5 mph 0.00 in   Overcast
11:36 PM 69.8 °F 64.4 °F 83% 29.79 in 10.0 mi South 16.1 mph 28.8 mph N/A   Light Drizzle
11:55 PM 68.2 °F 64.4 °F 88% 29.79 in 10.0 mi South 15.0 mph 24.2 mph 0.00 in   Light Drizzle
11:57 PM 68.0 °F 64.4 °F 88% 29.78 in 10.0 mi South 13.8 mph 24.2 mph N/A   Overcast